Location: Limoges
(45.8500°N, 1.2500°E)
Time: 12:48:25
(UTC+02:00)

ISS - Visible Passes

Search period start: 29 May 2020 00:00
Search period end: 08 June 2020 00:00
Orbit: 417 x 420 km, 51.6° (Epoch: 29 May)

Date Brightness Start Highest point End Pass type
(mag) Time Alt. Az. Time Alt. Az. Time Alt. Az.
29 May -1.4 00:47:32 10° W 00:48:30 15° WSW 00:48:30 15° WSW visible
29 May -3.1 22:22:24 10° WNW 22:25:42 52° NNE 22:29:01 10° E visible
29 May -2.7 23:59:23 10° WNW 00:02:21 30° SW 00:02:21 30° SW visible
30 May -3.3 23:11:24 10° WNW 23:14:40 48° SW 23:16:13 26° SSE visible
31 May -3.7 22:23:31 10° WNW 22:26:53 76° SSW 22:30:07 11° SE visible
01 Jun -1.3 00:01:40 10° WSW 00:03:03 12° SW 00:03:03 12° SW visible
01 Jun -1.9 23:13:00 10° W 23:15:32 20° SW 23:17:00 15° S visible
02 Jun -2.5 22:24:48 10° WNW 22:27:50 31° SW 22:30:51 10° SSE visible
04 Jun -1.2 22:26:57 10° WSW 22:28:32 13° SW 22:30:06 10° SSW visible
